Stündliche Wetter Celinnoe

Heute, 23 Januar, Samstag

Zeit Temperatur Niederschläge Wind Luftdruck Luftfeuchtigkeit
00:00 -6°C° 0.3 mm 1 m/S 737 mmHg 96%
01:00 -7°C° 0.4 mm 1 m/S 738 mmHg 96%
02:00 -7°C° 0.4 mm 1 m/S 739 mmHg 96%
03:00 -9°C° 0.4 mm 2 m/S 740 mmHg 95%
04:00 -9°C° 0.3 mm 2 m/S 741 mmHg 95%
05:00 -10°C° 0.3 mm 2 m/S 742 mmHg 94%
06:00 -12°C° 0.3 mm 2 m/S 743 mmHg 93%
07:00 -12°C° 0.1 mm 2 m/S 744 mmHg 90%
08:00 -14°C° 0.1 mm 3 m/S 745 mmHg 87%
09:00 -15°C° 0.1 mm 4 m/S 746 mmHg 83%
10:00 -15°C° 0 mm 5 m/S 747 mmHg 80%
11:00 -16°C° 0 mm 6 m/S 747 mmHg 77%
12:00 -17°C° 0 mm 7 m/S 747 mmHg 73%
13:00 -16°C° 0 mm 6 m/S 747 mmHg 74%
14:00 -16°C° 0 mm 6 m/S 747 mmHg 75%
15:00 -15°C° 0 mm 5 m/S 748 mmHg 75%
16:00 -17°C° 0 mm 5 m/S 748 mmHg 75%
17:00 -16°C° 0 mm 4 m/S 749 mmHg 75%
18:00 -17°C° 0 mm 4 m/S 749 mmHg 75%
19:00 -16°C° 0 mm 3 m/S 749 mmHg 77%
20:00 -17°C° 0 mm 3 m/S 750 mmHg 78%
21:00 -17°C° 0 mm 2 m/S 750 mmHg 79%
22:00 -17°C° 0 mm 2 m/S 750 mmHg 81%
23:00 -18°C° 0 mm 2 m/S 750 mmHg 82%

Morgen, 24 Januar, Sonntag

Zeit Temperatur Niederschläge Wind Luftdruck Luftfeuchtigkeit
00:00 -18°C° 0 mm 2 m/S 750 mmHg 83%
01:00 -16°C° 0 mm 1 m/S 750 mmHg 84%
02:00 -16°C° 0 mm 1 m/S 750 mmHg 84%
03:00 -17°C° 0 mm 1 m/S 750 mmHg 85%
04:00 -17°C° 0 mm 1 m/S 750 mmHg 85%
05:00 -17°C° 0 mm 1 m/S 750 mmHg 85%
06:00 -17°C° 0 mm 1 m/S 750 mmHg 86%
07:00 -17°C° 0 mm 1 m/S 750 mmHg 86%
08:00 -16°C° 0 mm 1 m/S 750 mmHg 86%
09:00 -16°C° 0 mm 1 m/S 750 mmHg 87%
10:00 -15°C° 0 mm 1 m/S 750 mmHg 85%
11:00 -14°C° 0 mm 1 m/S 749 mmHg 83%
12:00 -13°C° 0 mm 1 m/S 749 mmHg 81%
13:00 -13°C° 0 mm 1 m/S 749 mmHg 83%
14:00 -14°C° 0 mm 1 m/S 749 mmHg 86%
15:00 -14°C° 0 mm 1 m/S 748 mmHg 88%
16:00 -14°C° 0 mm 0 m/S 749 mmHg 88%
17:00 -15°C° 0 mm 0 m/S 749 mmHg 88%
18:00 -16°C° 0 mm 0 m/S 749 mmHg 88%
19:00 -16°C° 0 mm 0 m/S 749 mmHg 88%
20:00 -16°C° 0 mm 0 m/S 749 mmHg 88%
21:00 -16°C° 0 mm 0 m/S 749 mmHg 88%
22:00 -16°C° 0 mm 0 m/S 749 mmHg 87%
23:00 -16°C° 0 mm 1 m/S 749 mmHg 86%

übermorgen, 25 Januar, Montag

Zeit Temperatur Niederschläge Wind Luftdruck Luftfeuchtigkeit
00:00 -16°C° 0 mm 1 m/S 749 mmHg 86%
01:00 -17°C° 0 mm 2 m/S 750 mmHg 84%
02:00 -17°C° 0 mm 2 m/S 750 mmHg 83%
03:00 -18°C° 0 mm 3 m/S 751 mmHg 81%
04:00 -19°C° 0 mm 3 m/S 751 mmHg 82%
05:00 -19°C° 0 mm 2 m/S 752 mmHg 82%
06:00 -20°C° 0 mm 2 m/S 752 mmHg 82%
07:00 -20°C° 0 mm 2 m/S 753 mmHg 85%
08:00 -21°C° 0 mm 2 m/S 753 mmHg 89%
09:00 -21°C° 0 mm 2 m/S 754 mmHg 92%
10:00 -21°C° 0.1 mm 2 m/S 754 mmHg 91%
11:00 -21°C° 0.1 mm 2 m/S 754 mmHg 89%
12:00 -21°C° 0.1 mm 2 m/S 754 mmHg 88%
13:00 -21°C° 0 mm 2 m/S 754 mmHg 89%
14:00 -23°C° 0 mm 2 m/S 754 mmHg 90%
15:00 -20°C° 0 mm 1 m/S 755 mmHg 91%
16:00 -21°C° 0 mm 1 m/S 755 mmHg 91%
17:00 -22°C° 0 mm 1 m/S 755 mmHg 92%
18:00 -23°C° 0 mm 1 m/S 756 mmHg 93%
19:00 -24°C° 0 mm 1 m/S 756 mmHg 94%
20:00 -25°C° 0 mm 1 m/S 756 mmHg 95%
21:00 -26°C° 0 mm 0 m/S 756 mmHg 96%
22:00 -27°C° 0 mm 0 m/S 756 mmHg 95%
23:00 -28°C° 0 mm 0 m/S 756 mmHg 95%

26 Januar, Dienstag

Zeit Temperatur Niederschläge Wind Luftdruck Luftfeuchtigkeit
00:00 -28°C° 0 mm 0 m/S 756 mmHg 95%
01:00 -30°C° 0 mm 1 m/S 755 mmHg 95%
02:00 -30°C° 0 mm 1 m/S 755 mmHg 95%
03:00 -31°C° 0 mm 1 m/S 755 mmHg 96%
04:00 -31°C° 0 mm 1 m/S 755 mmHg 96%
05:00 -32°C° 0 mm 1 m/S 755 mmHg 97%
06:00 -33°C° 0 mm 1 m/S 755 mmHg 97%
07:00 -33°C° 0 mm 1 m/S 755 mmHg 97%
08:00 -33°C° 0 mm 1 m/S 756 mmHg 97%
09:00 -33°C° 0 mm 1 m/S 756 mmHg 97%
10:00 -31°C° 0 mm 1 m/S 755 mmHg 95%
11:00 -30°C° 0 mm 1 m/S 755 mmHg 93%
12:00 -29°C° 0 mm 1 m/S 755 mmHg 90%
13:00 -29°C° 0 mm 1 m/S 755 mmHg 91%
14:00 -29°C° 0 mm 1 m/S 755 mmHg 92%
15:00 -29°C° 0 mm 1 m/S 755 mmHg 93%
16:00 -31°C° 0 mm 1 m/S 755 mmHg 93%
17:00 -32°C° 0 mm 1 m/S 755 mmHg 94%
18:00 -34°C° 0 mm 1 m/S 756 mmHg 95%
19:00 -34°C° 0 mm 1 m/S 756 mmHg 95%
20:00 -35°C° 0 mm 1 m/S 756 mmHg 95%
21:00 -35°C° 0 mm 1 m/S 756 mmHg 94%
22:00 -35°C° 0 mm 1 m/S 757 mmHg 94%
23:00 -35°C° 0 mm 0 m/S 757 mmHg 95%

27 Januar, Mittwoch

Zeit Temperatur Niederschläge Wind Luftdruck Luftfeuchtigkeit
00:00 -35°C° 0 mm 0 m/S 757 mmHg 95%
01:00 -35°C° 0 mm 0 m/S 757 mmHg 94%
02:00 -35°C° 0 mm 0 m/S 758 mmHg 94%
03:00 -35°C° 0 mm 0 m/S 758 mmHg 94%
04:00 -35°C° 0 mm 0 m/S 759 mmHg 94%
05:00 -36°C° 0 mm 0 m/S 759 mmHg 94%
06:00 -36°C° 0 mm 0 m/S 759 mmHg 93%
07:00 -35°C° 0 mm 0 m/S 760 mmHg 92%
08:00 -35°C° 0 mm 0 m/S 760 mmHg 91%
09:00 -34°C° 0 mm 0 m/S 761 mmHg 90%
10:00 -33°C° 0 mm 0 m/S 761 mmHg 89%
11:00 -31°C° 0 mm 0 m/S 761 mmHg 88%
12:00 -30°C° 0 mm 0 m/S 761 mmHg 86%
13:00 -29°C° 0 mm 0 m/S 761 mmHg 88%
14:00 -29°C° 0 mm 0 m/S 760 mmHg 90%
15:00 -29°C° 0 mm 0 m/S 760 mmHg 91%
16:00 -31°C° 0 mm 0 m/S 761 mmHg 93%
17:00 -32°C° 0 mm 0 m/S 761 mmHg 95%
18:00 -34°C° 0 mm 0 m/S 762 mmHg 97%
19:00 -34°C° 0 mm 0 m/S 762 mmHg 97%
20:00 -34°C° 0 mm 0 m/S 761 mmHg 98%
21:00 -34°C° 0 mm 0 m/S 761 mmHg 98%
22:00 -34°C° 0 mm 0 m/S 761 mmHg 99%
23:00 -34°C° 0 mm 0 m/S 760 mmHg 99%

28 Januar, Donnerstag

Zeit Temperatur Niederschläge Wind Luftdruck Luftfeuchtigkeit
00:00 -35°C° 0 mm 0 m/S 760 mmHg 99%
01:00 -35°C° 0 mm 0 m/S 759 mmHg 99%
02:00 -34°C° 0 mm 0 m/S 759 mmHg 99%
03:00 -34°C° 0 mm 0 m/S 758 mmHg 99%
04:00 -33°C° 0 mm 0 m/S 758 mmHg 97%
05:00 -32°C° 0 mm 0 m/S 758 mmHg 96%
06:00 -31°C° 0 mm 0 m/S 757 mmHg 95%
07:00 -30°C° 0 mm 0 m/S 757 mmHg 93%
08:00 -30°C° 0 mm 0 m/S 756 mmHg 92%
09:00 -30°C° 0 mm 1 m/S 756 mmHg 90%
10:00 -28°C° 0.1 mm 1 m/S 756 mmHg 89%
11:00 -27°C° 0.1 mm 1 m/S 755 mmHg 89%
12:00 -27°C° 0.1 mm 2 m/S 754 mmHg 88%
13:00 -23°C° 0.1 mm 1 m/S 754 mmHg 89%
14:00 -22°C° 0.1 mm 1 m/S 753 mmHg 91%
15:00 -20°C° 0.1 mm 1 m/S 753 mmHg 92%
16:00 -20°C° 0 mm 1 m/S 753 mmHg 93%
17:00 -19°C° 0 mm 1 m/S 753 mmHg 94%
18:00 -18°C° 0 mm 1 m/S 753 mmHg 95%
19:00 -17°C° 0 mm 1 m/S 753 mmHg 94%
20:00 -15°C° 0 mm 1 m/S 753 mmHg 93%
21:00 -14°C° 0 mm 1 m/S 753 mmHg 92%
22:00 -15°C° 0 mm 2 m/S 753 mmHg 91%
23:00 -14°C° 0 mm 2 m/S 753 mmHg 90%
Mehr zeigen

Wir brauchen deine Erlaubnis

Meteoprog und unser Service Anbieter werden persönliche Daten aufbewahren, so wie Cookies, Geräte Bezeichnung oder ähnliche Technologien von deinem Gerät und Prozess, so wie Persönliche Daten Inhalte und Werbungen, genauso wie social Media und den Verkehr zu analysieren.

  • Aufbewahrung und/oder Zugang zu deiner Geräte Informationen.

    Cookies, Geräte Bezeichnung oder andere Informationen, können aufbewahrt oder Zugang zu deinem Gerät erhalten, für den Grund, der oben angegeben wird.

  • Personalisierte Werbung und Inhalte, Messungen, Einblick in das Publikum und Produkt Entwicklung.

    Werbungen und Inhalte können personalisiert werden, basierend auf ein Profil. Mehr Daten können besser personalisierte Werbungen und Inhalte hinzufügen. Werbung und Inhalte können gezeigt und gemessen werden. Einblicke über das Publikum, welche die Werbung gesehen haben und den Inhalt, können abgeleitet werden. So wie Daten können genutzt werden, um es zu verbessern oder die Benutzer Erfahrung zu verbessern das System und die Software.

Wenn du “Ich stimme zu” klickst, erlaubst du uns, die Cookies zu benutzen die Geräte Bezeichnung, den Web oder ähnliche Technologien zu benutzen. Deine Settings, können in deinem Gerät bei deinem Browser geändert werden.

Für den bestimmten Zweck, berechtigten Interessen beruhen darauf, mehr als auf den Inhalt. Du kannst mehr darüber in unseren Privaten und Cookie Politik lesen.